Time,TemperatureF,DewpointF,PressureIn,WindDirection,WindDirectionDegrees,WindSpeedMPH,WindSpeedGustMPH,Humidity,HourlyPrecipIn,Conditions,Clouds,dailyrainin,SoftwareType,DateUTC
2013-12-18 00:01:00,24.5,14.0,30.25,West,281,2.0,3.0,64,0.00,,,0.00,weatherlink.com 1.10,2013-12-18 06:01:00,
2013-12-18 00:16:00,24.3,14.0,30.25,West,281,2.0,3.0,65,0.00,,,0.00,weatherlink.com 1.10,2013-12-18 06:16:00,
2013-12-18 00:31:00,24.2,14.0,30.24,WNW,282,2.0,2.0,66,0.00,,,0.00,weatherlink.com 1.10,2013-12-18 06:31:00,
2013-12-18 00:46:00,24.0,14.0,30.24,WNW,282,1.0,2.0,67,0.00,,,0.00,weatherlink.com 1.10,2013-12-18 06:46:00,
2013-12-18 01:02:00,23.4,14.0,30.23,West,264,0.0,2.0,68,0.00,,,0.00,weatherlink.com 1.10,2013-12-18 07:02:00,
2013-12-18 01:16:00,23.2,14.0,30.23,SW,235,0.0,1.0,69,0.00,,,0.00,weatherlink.com 1.10,2013-12-18 07:16:00,
2013-12-18 01:31:00,23.0,14.0,30.23,West,278,2.0,3.0,69,0.00,,,0.00,weatherlink.com 1.10,2013-12-18 07:31:00,
2013-12-18 01:46:00,22.5,14.0,30.24,West,278,1.0,3.0,70,0.00,,,0.00,weatherlink.com 1.10,2013-12-18 07:46:00,
2013-12-18 02:02:00,22.9,14.0,30.24,West,281,1.0,3.0,69,0.00,,,0.00,weatherlink.com 1.10,2013-12-18 08:02:00,
2013-12-18 02:16:00,22.9,14.0,30.25,West,281,1.0,2.0,69,0.00,,,0.00,weatherlink.com 1.10,2013-12-18 08:16:00,
2013-12-18 02:32:00,22.7,14.0,30.25,West,264,2.0,2.0,70,0.00,,,0.00,weatherlink.com 1.10,2013-12-18 08:32:00,
2013-12-18 02:46:00,22.8,14.0,30.25,West,272,0.0,3.0,69,0.00,,,0.00,weatherlink.com 1.10,2013-12-18 08:46:00,
2013-12-18 03:02:00,22.9,14.0,30.24,West,278,1.0,2.0,69,0.00,,,0.00,weatherlink.com 1.10,2013-12-18 09:02:00,
2013-12-18 03:16:00,22.9,14.0,30.25,West,276,1.0,2.0,69,0.00,,,0.00,weatherlink.com 1.10,2013-12-18 09:16:00,
2013-12-18 03:32:00,23.3,14.0,30.25,West,280,1.0,5.0,68,0.00,,,0.00,weatherlink.com 1.10,2013-12-18 09:32:00,
2013-12-18 03:47:00,23.4,15.0,30.24,West,269,3.0,5.0,69,0.00,,,0.00,weatherlink.com 1.10,2013-12-18 09:47:00,
2013-12-18 04:02:00,23.5,15.0,30.24,WSW,256,2.0,6.0,69,0.00,,,0.00,weatherlink.com 1.10,2013-12-18 10:02:00,
2013-12-18 04:18:00,23.9,15.0,30.24,WSW,256,3.0,5.0,69,0.00,,,0.00,weatherlink.com 1.10,2013-12-18 10:18:00,
2013-12-18 04:32:00,24.1,15.0,30.23,WSW,248,1.0,5.0,69,0.00,,,0.00,weatherlink.com 1.10,2013-12-18 10:32:00,
2013-12-18 04:48:00,24.4,16.0,30.23,SSE,166,3.0,6.0,69,0.00,,,0.00,weatherlink.com 1.10,2013-12-18 10:48:00,
2013-12-18 05:02:00,24.0,15.0,30.22,South,172,4.0,4.0,69,0.00,,,0.00,weatherlink.com 1.10,2013-12-18 11:02:00,
2013-12-18 05:18:00,23.1,15.0,30.22,SSE,158,3.0,4.0,71,0.00,,,0.00,weatherlink.com 1.10,2013-12-18 11:18:00,
2013-12-18 05:32:00,22.4,15.0,30.22,South,169,2.0,4.0,72,0.00,,,0.00,weatherlink.com 1.10,2013-12-18 11:32:00,
2013-12-18 05:48:00,22.1,15.0,30.21,SSE,156,3.0,5.0,73,0.00,,,0.00,weatherlink.com 1.10,2013-12-18 11:48:00,
2013-12-18 06:03:00,21.8,15.0,30.21,South,172,4.0,6.0,74,0.00,,,0.00,weatherlink.com 1.10,2013-12-18 12:03:00,
2013-12-18 06:18:00,21.7,15.0,30.20,SSE,149,3.0,6.0,75,0.00,,,0.00,weatherlink.com 1.10,2013-12-18 12:18:00,
2013-12-18 06:34:00,21.7,15.0,30.20,SSE,150,3.0,6.0,76,0.00,,,0.00,weatherlink.com 1.10,2013-12-18 12:34:00,
2013-12-18 06:48:00,22.1,16.0,30.21,South,190,5.0,7.0,76,0.00,,,0.00,weatherlink.com 1.10,2013-12-18 12:48:00,
2013-12-18 07:04:00,22.4,16.0,30.20,South,190,4.0,7.0,75,0.00,,,0.00,weatherlink.com 1.10,2013-12-18 13:04:00,
2013-12-18 07:18:00,22.4,16.0,30.20,South,172,4.0,7.0,75,0.00,,,0.00,weatherlink.com 1.10,2013-12-18 13:18:00,
2013-12-18 07:33:00,22.7,16.0,30.20,SE,145,3.0,6.0,75,0.00,,,0.00,weatherlink.com 1.10,2013-12-18 13:33:00,
2013-12-18 07:49:00,22.1,15.0,30.19,SE,141,2.0,4.0,75,0.00,,,0.00,weatherlink.com 1.10,2013-12-18 13:49:00,
2013-12-18 08:03:00,21.7,15.0,30.18,ESE,118,2.0,3.0,75,0.00,,,0.00,weatherlink.com 1.10,2013-12-18 14:03:00,
2013-12-18 08:19:00,22.4,16.0,30.18,SE,136,2.0,4.0,75,0.00,,,0.00,weatherlink.com 1.10,2013-12-18 14:19:00,
2013-12-18 08:34:00,23.5,16.0,30.18,South,177,5.0,7.0,73,0.00,,,0.00,weatherlink.com 1.10,2013-12-18 14:34:00,
2013-12-18 08:50:00,24.0,16.0,30.18,ESE,120,3.0,4.0,72,0.00,,,0.00,weatherlink.com 1.10,2013-12-18 14:50:00,
2013-12-18 09:04:00,25.3,17.0,30.17,South,173,6.0,6.0,70,0.00,,,0.00,weatherlink.com 1.10,2013-12-18 15:04:00,
2013-12-18 09:20:00,26.6,17.0,30.17,SSE,160,4.0,8.0,68,0.00,,,0.00,weatherlink.com 1.10,2013-12-18 15:20:00,
2013-12-18 09:34:00,27.4,17.0,30.16,SSE,158,3.0,7.0,65,0.00,,,0.00,weatherlink.com 1.10,2013-12-18 15:34:00,
2013-12-18 09:50:00,28.4,18.0,30.15,SSE,159,4.0,13.0,64,0.00,,,0.00,weatherlink.com 1.10,2013-12-18 15:50:00,
2013-12-18 10:05:00,29.8,18.0,30.15,SSE,159,5.0,11.0,62,0.00,,,0.00,weatherlink.com 1.10,2013-12-18 16:05:00,
2013-12-18 10:20:00,31.9,18.0,30.14,SE,143,5.0,13.0,58,0.00,,,0.00,weatherlink.com 1.10,2013-12-18 16:20:00,
2013-12-18 10:34:00,33.7,18.0,30.13,SSE,160,7.0,13.0,54,0.00,,,0.00,weatherlink.com 1.10,2013-12-18 16:34:00,
2013-12-18 10:50:00,35.1,18.0,30.12,SE,143,6.0,14.0,51,0.00,,,0.00,weatherlink.com 1.10,2013-12-18 16:50:00,
2013-12-18 11:05:00,36.0,18.0,30.11,South,183,7.0,21.0,49,0.00,,,0.00,weatherlink.com 1.10,2013-12-18 17:05:00,
2013-12-18 11:20:00,36.6,18.0,30.09,SSE,153,16.0,23.0,47,0.00,,,0.00,weatherlink.com 1.10,2013-12-18 17:20:00,
2013-12-18 11:36:00,37.2,19.0,30.07,SE,144,5.0,20.0,49,0.00,,,0.00,weatherlink.com 1.10,2013-12-18 17:36:00,
2013-12-18 11:50:00,37.6,20.0,30.05,SSE,155,7.0,15.0,50,0.00,,,0.00,weatherlink.com 1.10,2013-12-18 17:50:00,
2013-12-18 12:05:00,37.7,21.0,30.04,SSW,194,7.0,16.0,51,0.00,,,0.00,weatherlink.com 1.10,2013-12-18 18:05:00,
2013-12-18 12:21:00,38.1,21.0,30.03,SSE,147,10.0,18.0,51,0.01,,,0.01,weatherlink.com 1.10,2013-12-18 18:21:00,
2013-12-18 12:35:00,38.4,22.0,30.01,SE,142,6.0,18.0,53,0.01,,,0.01,weatherlink.com 1.10,2013-12-18 18:35:00,
2013-12-18 12:51:00,38.9,23.0,30.00,South,186,9.0,14.0,54,0.01,,,0.01,weatherlink.com 1.10,2013-12-18 18:51:00,
2013-12-18 13:05:00,39.5,24.0,29.99,SSE,166,10.0,18.0,54,0.01,,,0.01,weatherlink.com 1.10,2013-12-18 19:05:00,
2013-12-18 13:21:00,40.7,25.0,29.98,SE,145,3.0,13.0,54,0.00,,,0.01,weatherlink.com 1.10,2013-12-18 19:21:00,
2013-12-18 13:36:00,41.2,26.0,29.97,SSE,162,10.0,17.0,54,0.00,,,0.01,weatherlink.com 1.10,2013-12-18 19:36:00,
2013-12-18 13:52:00,41.7,26.0,29.95,SSE,151,10.0,13.0,54,0.00,,,0.01,weatherlink.com 1.10,2013-12-18 19:52:00,
2013-12-18 14:07:00,42.4,27.0,29.94,South,173,7.0,11.0,54,0.00,,,0.01,weatherlink.com 1.10,2013-12-18 20:07:00,
2013-12-18 14:21:00,42.7,26.0,29.94,South,169,9.0,17.0,53,0.01,,,0.02,weatherlink.com 1.10,2013-12-18 20:21:00,
2013-12-18 14:37:00,43.2,27.0,29.93,SSE,165,8.0,17.0,53,0.02,,,0.03,weatherlink.com 1.10,2013-12-18 20:37:00,
2013-12-18 14:52:00,43.0,27.0,29.93,SE,127,3.0,13.0,54,0.03,,,0.04,weatherlink.com 1.10,2013-12-18 20:52:00,
2013-12-18 15:07:00,42.4,28.0,29.92,SW,217,3.0,12.0,56,0.03,,,0.04,weatherlink.com 1.10,2013-12-18 21:07:00,
2013-12-18 15:22:00,42.3,28.0,29.91,SSE,155,6.0,10.0,57,0.03,,,0.05,weatherlink.com 1.10,2013-12-18 21:22:00,
2013-12-18 15:37:00,41.2,28.0,29.91,SSW,193,7.0,15.0,59,0.03,,,0.06,weatherlink.com 1.10,2013-12-18 21:37:00,
2013-12-18 15:51:00,40.5,28.0,29.91,SSE,158,7.0,12.0,61,0.02,,,0.06,weatherlink.com 1.10,2013-12-18 21:51:00,
2013-12-18 16:08:00,40.2,28.0,29.90,SSE,148,4.0,16.0,63,0.03,,,0.07,weatherlink.com 1.10,2013-12-18 22:08:00,
2013-12-18 16:22:00,40.1,28.0,29.90,South,173,7.0,15.0,63,0.02,,,0.07,weatherlink.com 1.10,2013-12-18 22:22:00,
2013-12-18 16:38:00,40.1,28.0,29.89,SSE,163,8.0,19.0,63,0.01,,,0.07,weatherlink.com 1.10,2013-12-18 22:38:00,
2013-12-18 16:52:00,40.2,28.0,29.89,SSE,149,11.0,19.0,63,0.02,,,0.08,weatherlink.com 1.10,2013-12-18 22:52:00,
2013-12-18 17:08:00,40.3,29.0,29.88,SSE,167,9.0,15.0,64,0.01,,,0.08,weatherlink.com 1.10,2013-12-18 23:08:00,
2013-12-18 17:23:00,40.5,29.0,29.88,South,186,8.0,22.0,64,0.02,,,0.09,weatherlink.com 1.10,2013-12-18 23:23:00,
2013-12-18 17:37:00,40.7,29.0,29.88,South,187,12.0,18.0,64,0.02,,,0.09,weatherlink.com 1.10,2013-12-18 23:37:00,
2013-12-18 17:53:00,40.8,29.0,29.88,South,173,10.0,18.0,64,0.01,,,0.09,weatherlink.com 1.10,2013-12-18 23:53:00,
2013-12-18 18:08:00,41.0,30.0,29.88,SW,233,11.0,19.0,64,0.01,,,0.09,weatherlink.com 1.10,2013-12-19 00:08:00,
2013-12-18 18:23:00,40.8,30.0,29.88,South,172,8.0,17.0,65,0.00,,,0.09,weatherlink.com 1.10,2013-12-19 00:23:00,
2013-12-18 18:39:00,40.5,30.0,29.88,South,177,6.0,14.0,67,0.00,,,0.09,weatherlink.com 1.10,2013-12-19 00:39:00,
2013-12-18 18:53:00,40.7,30.0,29.88,South,180,9.0,13.0,67,0.01,,,0.10,weatherlink.com 1.10,2013-12-19 00:53:00,
2013-12-18 19:09:00,40.5,31.0,29.88,South,170,8.0,11.0,68,0.01,,,0.10,weatherlink.com 1.10,2013-12-19 01:09:00,
2013-12-18 19:23:00,40.4,31.0,29.88,SSE,160,8.0,14.0,68,0.01,,,0.10,weatherlink.com 1.10,2013-12-19 01:23:00,
2013-12-18 19:38:00,40.1,31.0,29.88,SSE,149,4.0,14.0,69,0.01,,,0.10,weatherlink.com 1.10,2013-12-19 01:38:00,
2013-12-18 19:54:00,39.8,31.0,29.88,South,170,4.0,9.0,70,0.00,,,0.10,weatherlink.com 1.10,2013-12-19 01:54:00,
2013-12-18 20:08:00,39.7,31.0,29.89,South,188,6.0,8.0,71,0.00,,,0.10,weatherlink.com 1.10,2013-12-19 02:08:00,
2013-12-18 20:24:00,39.7,31.0,29.89,SSE,150,3.0,9.0,71,0.00,,,0.10,weatherlink.com 1.10,2013-12-19 02:24:00,
2013-12-18 20:39:00,40.3,32.0,29.89,South,179,10.0,11.0,71,0.00,,,0.10,weatherlink.com 1.10,2013-12-19 02:39:00,
2013-12-18 20:53:00,41.8,33.0,29.88,SW,221,8.0,13.0,70,0.00,,,0.10,weatherlink.com 1.10,2013-12-19 02:53:00,
2013-12-18 21:09:00,42.7,33.0,29.88,WSW,245,6.0,14.0,68,0.00,,,0.10,weatherlink.com 1.10,2013-12-19 03:09:00,
2013-12-18 21:23:00,43.2,33.0,29.88,South,181,9.0,14.0,68,0.00,,,0.10,weatherlink.com 1.10,2013-12-19 03:23:00,
2013-12-18 21:40:00,43.2,33.0,29.89,SSE,163,14.0,16.0,68,0.00,,,0.10,weatherlink.com 1.10,2013-12-19 03:40:00,
2013-12-18 21:54:00,43.0,33.0,29.89,SW,217,8.0,21.0,69,0.00,,,0.10,weatherlink.com 1.10,2013-12-19 03:54:00,
2013-12-18 22:10:00,43.2,33.0,29.89,SSE,166,9.0,15.0,68,0.00,,,0.10,weatherlink.com 1.10,2013-12-19 04:10:00,
2013-12-18 22:24:00,42.8,33.0,29.89,SSW,205,10.0,14.0,69,0.00,,,0.10,weatherlink.com 1.10,2013-12-19 04:24:00,
2013-12-18 22:40:00,42.4,33.0,29.89,SSE,159,8.0,13.0,70,0.00,,,0.10,weatherlink.com 1.10,2013-12-19 04:40:00,
2013-12-18 22:55:00,42.0,33.0,29.89,SSE,160,6.0,12.0,70,0.00,,,0.10,weatherlink.com 1.10,2013-12-19 04:55:00,
2013-12-18 23:10:00,41.7,33.0,29.89,SSW,197,7.0,11.0,71,0.00,,,0.10,weatherlink.com 1.10,2013-12-19 05:10:00,
2013-12-18 23:24:00,41.3,33.0,29.89,SSW,196,10.0,13.0,71,0.00,,,0.10,weatherlink.com 1.10,2013-12-19 05:24:00,
2013-12-18 23:40:00,40.9,33.0,29.89,SSE,160,4.0,13.0,72,0.00,,,0.10,weatherlink.com 1.10,2013-12-19 05:40:00,
2013-12-18 23:55:00,40.5,32.0,29.88,SSE,155,7.0,14.0,73,0.00,,,0.10,weatherlink.com 1.10,2013-12-19 05:55:00,